Location: Observatory
(52.1446°N, 0.4624°W)
Time: 05:01:55
(UTC+01:00)

ISS - Pass Details

Date: 23 May 2018
Orbit: 402 x 407 km, 51.6° (Epoch: 24 May)

Event Time Altitude Azimuth Distance (km) Brightness Sun altitude
Rises 02:46:34 0° 282° (WNW) 2,321 -0.1 -13.6°
Reaches altitude 10° 02:48:46 10° 272° (W) 1,459 -1.3 -13.4°
Maximum altitude 02:51:43 32° 208° (SSW) 717 -3.2 -13.2°
Drops below altitude 10° 02:54:41 10° 143° (SE) 1,453 -1.3 -13.0°
Sets 02:56:52 0° 133° (SE) 2,309 -0.1 -12.9°
